Weather History for Francistown, Botswana

Change the Weather History Date:

Saturday, September 21, 2013

  Actual Average Record
Temperature  
Mean Temperature 76 °F -  
Max Temperature 92 °F 86 °F 95 °F (2003)
Min Temperature 59 °F 60 °F 48 °F (1999)
Cooling Degree Days 10    
Growing Degree Days 26 (Base 50)    
Moisture  
Dew Point 37 °F    
Average Humidity 25    
Maximum Humidity 60    
Minimum Humidity 7    
Precipitation  
Precipitation 0.00 in - - ()
Sea Level Pressure  
Sea Level Pressure 29.98 in    
Wind  
Wind Speed 6 mph ()    
Max Wind Speed 21 mph    
Max Gust Speed -    
Visibility 6.0 miles    
Events      
Averages and records for this station are not official NWS values.
T = Trace of Precipitation, MM = Missing Value Source: Averaged Metar Reports

Daily Weather History Graph

Daily Weather History Graph

Search for Another Location

Airport:

Trip Planner

Search our weather history database for the weather conditions in past years. The results will help you decide how hot, cold, wet, or windy it might be!

Date:

Astronomy

Sep. 21, 2013 Rise Set
Actual Time 6:00 AM CAT 6:05 PM CAT
Civil Twilight 5:38 AM CAT 6:28 PM CAT
Nautical Twilight 5:12 AM CAT 6:53 PM CAT
Astronomical Twilight 4:46 AM CAT 7:19 PM CAT
Moon 8:05 PM CAT (9/21) 7:06 AM CAT (9/21)
Length of Visible Light 12h 49m
Length of Day
12h 05m
Waning Gibbous, 95% of the Moon is Illuminated
Sep 21
Waning Gibbous
Sep 27
Last Quarter
Oct 5
New
Oct 12
First Quarter
Oct 19
Full

Hourly Weather History & Observations

Time (CAT) Temp. Dew Point Humidity Pressure Visibility Wind Dir Wind Speed Gust Speed Precip Events Conditions
12:00 AM 68.0 °F 35.6 °F 30% 29.86 in - North 5.8 mph - N/A   Clear
1:00 AM 75.2 °F 39.2 °F 27% 29.89 in - SSE 2.3 mph - N/A   Clear
2:00 AM 73 °F 42 °F 22%  in 6 mi WSW 6.9 mph - -  
2:00 AM 73.4 °F 41.0 °F 31% 29.89 in - WSW 6.9 mph - N/A   Clear
3:00 AM 68.0 °F 44.6 °F 43% 29.89 in - NW 3.5 mph - N/A   Clear
4:00 AM 66.2 °F 39.2 °F 37% 29.89 in - NNW 2.3 mph - N/A   Clear
5:00 AM 59.0 °F 35.6 °F 42% 29.92 in - WSW 3.5 mph - N/A   Clear
6:00 AM 62.6 °F 39.2 °F 42% 29.95 in - Variable 1.2 mph - N/A   Clear
7:00 AM 62.6 °F 35.6 °F 37% 29.98 in - Variable 1.2 mph - N/A   Clear
8:00 AM 72 °F 29 °F 11%  in 6 mi SSE 8.1 mph - -   Partly Cloudy
8:00 AM 71.6 °F 28.4 °F 20% 29.98 in - SSE 8.1 mph - N/A   Clear
9:00 AM 75.2 °F 30.2 °F 19% 30.01 in - SSW 5.8 mph - N/A   Clear
10:00 AM 80.6 °F 30.2 °F 16% 30.01 in - SSW 10.4 mph - N/A   Clear
11:00 AM 62.6 °F 35.6 °F 37% 29.98 in - Variable 1.2 mph - N/A   Clear
12:00 PM 86.0 °F 35.6 °F 17% 29.98 in - SW 5.8 mph - N/A   Clear
1:00 PM 89.6 °F 41.0 °F 18% 29.98 in - South 5.8 mph - N/A   Clear
2:00 PM 92 °F 36 °F 7%  in 6 mi SSW 15.0 mph - -   Partly Cloudy
2:00 PM 91.4 °F 35.6 °F 14% 29.95 in - SSW 15.0 mph - N/A   Clear
3:00 PM 91.4 °F 39.2 °F 16% 29.95 in - SSE 6.9 mph - N/A   Clear
4:00 PM 91.4 °F 37.4 °F 15% 29.95 in - SSE 6.9 mph - N/A   Clear
5:00 PM 91.4 °F 37.4 °F 15% 29.95 in - South 8.1 mph - N/A   Clear
6:00 PM 86.0 °F 35.6 °F 17% 29.98 in - South 13.8 mph - N/A   Clear
7:00 PM 78.8 °F 33.8 °F 20% 30.04 in - South 18.4 mph - N/A   Clear
8:00 PM 77.0 °F 32.0 °F 19% 30.06 in - SSE 15.0 mph - N/A   Clear
9:00 PM 73.4 °F 32.0 °F 22% 30.09 in - SSE 6.9 mph - N/A   Clear
10:00 PM 71.6 °F 33.8 °F 25% 30.12 in - SSE 6.9 mph - N/A   Clear
11:00 PM 71.6 °F 57.2 °F 60% 30.12 in - SE 20.7 mph - N/A   Clear